Regional Weather Roundup
Issued by NWS Cleveland, OH

Home | Current Version | Previous Version | Graphics & Text | Print | Product List | Glossary On
Versions: 1 2 3 4 5 6 7 8 9 10 11 12 13 14 15 16 17 18 19 20 21 22 23 24 25 26 27 28 29 30 31 32 33 34 35 36 37 38 39 40 41 42 43 44 45 46 47 48 49 50
000
ASUS41 KCLE 280500
RWRCLE
OHIO REGIONAL WEATHER ROUNDUP
NATIONAL WEATHER SERVICE WILMINGTON, OH
1200 AM EST WED JAN 28 2015

NOTE: "FAIR" INDICATES FEW OR NO CLOUDS BELOW 12,000 FEET WITH NO
SIGNIFICANT WEATHER AND/OR OBSTRUCTIONS TO VISIBILITY.

OHZ001>008-015>018-024>027-034-035-043-044-280600-
   NORTHWEST OHIO

CITY           SKY/WX    TMP DP  RH WIND       PRES   REMARKS
DEFIANCE       PTCLDY    10   5  80 CALM      30.25R
FINDLAY        PTCLDY    11   5  77 W3        30.21R
TOLEDO EXPRESS CLEAR     12   8  84 W3        30.24R
TOLEDO EXEC    CLEAR     15   8  73 NW3       30.24R
LIMA           PTCLDY     6   1  80 W5        30.22R HAZE    WCI  -3
$$

OHZ009>014-019>023-028>033-038-089-280600-
   NORTHEAST OHIO

CITY           SKY/WX    TMP DP  RH WIND       PRES   REMARKS
CLE-HOPKINS    PTCLDY    17  13  84 NW5       30.21R WCI  10
CLE-LAKEFRONT  CLEAR     13   9  84 CALM      30.19S
CUY CO. ARPT   NOT AVBL
LORAIN-ELYRIA  PTCLDY    15  11  83 N7        30.19R WCI   5
ASHTABULA      CLEAR      2   0  91 W3        30.15R
AKRON-CANTON   MOCLDY    16  10  77 NW9       30.14R WCI   4
WOOSTER        NOT AVBL
MANSFIELD      PTCLDY     9   7  92 W3        30.16S
YOUNGSTOWN     PTCLDY     9   6  88 CALM      30.13R
$$

OHZ042-051>053-060>062-070>072-077>081-280600-
  SOUTHWEST OHIO

CITY           SKY/WX    TMP DP  RH WIND       PRES   REMARKS
CINC-COVINGTON CLEAR     20  12  71 CALM      30.24S
CINC-LUNKEN    CLEAR     18  13  80 CALM      30.28S
HAMILTON       CLEAR     13  10  88 CALM      30.27S
DAYTON         NOT AVBL
WRIGHT-PAT AFB NOT AVBL
DAYTON GENERAL CLEAR     14  11  87 CALM      30.22S
WILMINGTON     PTCLDY    11   7  84 CALM      30.22R
$$

OHZ036-037-039>041-045>050-054>059-063>069-073>076-082>088-280600-
  CENTRAL AND SOUTHEAST OHIO

CITY           SKY/WX    TMP DP  RH WIND       PRES   REMARKS
COLUMBUS       PTCLDY    14   9  80 W3        30.22R
OSU AIRPORT    PTCLDY    11   7  84 W5        30.21R WCI   3
BOLTON FIELD   NOT AVBL
RICKENBACK AFB NOT AVBL
NEWARK         PTCLDY     8   4  83 E3        30.20R
MARION         MOCLDY     6   2  83 NW5       30.20S FOG     WCI  -3
LANCASTER      CLEAR      4   0  83 CALM      30.21S
ZANESVILLE     CLOUDY    14   8  77 NW3       30.19R
NEW PHILLY     CLOUDY    18  11  74 NW5       30.18S WCI  11
$$



USA.gov is the U.S. government's official web portal to all federal, state and local government web resources and services.